Weather History for Toledo Metcalf, OH

Change the Weather History Date:

Friday, January 31, 2014

  Actual Average (KTOL) Record (KTOL)
Temperature  
Mean Temperature 32 °F 26 °F  
Max Temperature 34 °F 33 °F 62 °F (1989)
Min Temperature 28 °F 18 °F -5 °F (1971)
Degree Days  
Heating Degree Days 33 39  
Month to date heating degree days 1227  
Since 1 July heating degree days 3549  
Cooling Degree Days 0 0  
Month to date cooling degree days 0  
Year to date cooling degree days 0  
Moisture  
Dew Point 24 °F    
Average Humidity 77    
Maximum Humidity 92    
Minimum Humidity 57    
Precipitation  
Precipitation 0.00 in 0.06 in 0.93 in (2002)
Month to date precipitation 2.05  
Year to date precipitation 2.05  
Snow  
Snow 0.00 in 0.40 in - ()
Month to date snowfall 11.6  
Since 1 July snowfall 21.1  
Snow Depth -    
Sea Level Pressure  
Sea Level Pressure 30.09 in    
Wind  
Wind Speed 10 mph (SW)    
Max Wind Speed 14 mph    
Max Gust Speed -    
Visibility 5 miles    
Events Snow    
T = Trace of Precipitation, MM = Missing Value Source: NWS Daily Summary

Daily Weather History Graph

Daily Weather History Graph

Search for Another Location

Airport:

Trip Planner

Search our weather history database for the weather conditions in past years. The results will help you decide how hot, cold, wet, or windy it might be!

Date:

Astronomy

Jan. 31, 2014 Rise Set
Actual Time 7:46 AM EST 5:48 PM EST
Civil Twilight 7:17 AM EST 6:17 PM EST
Nautical Twilight 6:44 AM EST 6:51 PM EST
Astronomical Twilight 6:11 AM EST 7:23 PM EST
Moon 7:54 AM EST (1/31) 7:13 PM EST (1/31)
Length of Visible Light 11h 00m
Length of Day
10h 01m
New Moon, 1% of the Moon is Illuminated
Jan 31
New Moon
Feb 6
First Quarter
Feb 14
Full
Feb 22
Last Quarter
Mar 1
New

Hourly Weather History & Observations

Time (EST) Temp. Windchill Dew Point Humidity Pressure Visibility Wind Dir Wind Speed Gust Speed Precip Events Conditions
12:53 AM 30.0 °F 20.0 °F 18.0 °F 61% 29.92 in 10.0 mi SW 12.7 mph - N/A   Overcast
1:53 AM 30.0 °F 19.5 °F 17.1 °F 59% 29.93 in 10.0 mi SW 13.8 mph - N/A   Overcast
2:53 AM 30.9 °F 21.7 °F 17.1 °F 57% 29.94 in 10.0 mi SW 11.5 mph - N/A   Overcast
3:33 AM 30.9 °F 21.2 °F 17.1 °F 57% 29.94 in 10.0 mi SW 12.7 mph - N/A   Overcast
3:53 AM 30.9 °F 20.7 °F 17.1 °F 57% 29.97 in 10.0 mi SW 13.8 mph - N/A   Overcast
4:36 AM 30.0 °F 20.5 °F 17.1 °F 59% 29.95 in 10.0 mi SW 11.5 mph - N/A   Overcast
4:44 AM 30.9 °F 21.7 °F 17.1 °F 57% 29.96 in 10.0 mi SW 11.5 mph - N/A   Overcast
4:53 AM 30.0 °F 20.5 °F 17.1 °F 59% 29.98 in 10.0 mi SW 11.5 mph - N/A   Overcast
5:53 AM 30.0 °F 20.5 °F 17.1 °F 59% 30.00 in 10.0 mi SW 11.5 mph - N/A   Overcast
6:53 AM 30.0 °F 21.7 °F 18.0 °F 61% 30.03 in 10.0 mi SW 9.2 mph - N/A   Overcast
7:53 AM 30.0 °F 20.5 °F 18.0 °F 61% 30.06 in 10.0 mi SW 11.5 mph - N/A   Overcast
8:53 AM 30.0 °F 21.7 °F 19.0 °F 64% 30.09 in 10.0 mi SW 9.2 mph - N/A   Overcast
9:53 AM 30.9 °F 22.2 °F 19.9 °F 64% 30.11 in 10.0 mi WSW 10.4 mph - N/A   Overcast
10:53 AM 32.0 °F 24.2 °F 23.0 °F 69% 30.11 in 10.0 mi West 9.2 mph - N/A   Overcast
11:53 AM 34.0 °F 28.0 °F 24.1 °F 67% 30.10 in 10.0 mi SW 6.9 mph - N/A   Unknown
12:53 PM 34.0 °F 26.0 °F 25.0 °F 70% 30.09 in 8.0 mi WSW 10.4 mph - N/A   Clear
1:53 PM 34.0 °F 26.6 °F 26.1 °F 73% 30.12 in 6.0 mi SW 9.2 mph - N/A   Haze
2:01 PM 34.0 °F 25.5 °F 26.1 °F 73% 30.10 in 6.0 mi SW 11.5 mph - N/A   Haze
2:33 PM 33.1 °F 24.4 °F 27.0 °F 78% 30.11 in 4.0 mi WSW 11.5 mph - 0.00 in   Haze
2:53 PM 33.1 °F 25.5 °F 27.0 °F 78% 30.12 in 4.0 mi SW 9.2 mph - 0.00 in   Haze
3:33 PM 32.0 °F 24.2 °F 28.0 °F 85% 30.11 in 2.0 mi SW 9.2 mph - 0.00 in Snow Light Snow
3:41 PM 32.0 °F 24.2 °F 28.0 °F 85% 30.11 in 1.8 mi SSW 9.2 mph - 0.00 in Snow Light Snow
3:53 PM 32.0 °F 24.8 °F 28.0 °F 85% 30.14 in 1.8 mi SW 8.1 mph - 0.00 in Snow Light Snow
4:12 PM 32.0 °F 24.8 °F 28.0 °F 85% 30.11 in 1.0 mi SW 8.1 mph - 0.00 in Snow Light Snow
4:42 PM 32.0 °F 25.6 °F 28.9 °F 88% 30.12 in 1.8 mi SW 6.9 mph - 0.00 in Snow Light Snow
4:53 PM 32.0 °F 24.8 °F 28.9 °F 88% 30.14 in 2.0 mi SSW 8.1 mph - 0.00 in Snow Light Snow
5:10 PM 32.0 °F 25.6 °F 28.9 °F 88% 30.12 in 1.2 mi SSW 6.9 mph - 0.00 in Snow Light Snow
5:38 PM 32.0 °F 25.6 °F 28.9 °F 88% 30.12 in 1.5 mi SSW 6.9 mph - 0.00 in Snow Light Snow
5:45 PM 32.0 °F 26.4 °F 28.9 °F 88% 30.12 in 1.5 mi SSW 5.8 mph - 0.00 in Snow Light Snow
5:53 PM 32.0 °F 27.5 °F 28.9 °F 88% 30.14 in 1.5 mi SSW 4.6 mph - 0.00 in Snow Light Snow
6:09 PM 32.0 °F 25.6 °F 28.9 °F 88% 30.13 in 2.0 mi SSW 6.9 mph - 0.00 in Snow Light Snow
6:53 PM 32.0 °F 25.6 °F 28.9 °F 88% 30.16 in 2.0 mi SSW 6.9 mph - 0.00 in Snow Light Snow
7:29 PM 30.9 °F 24.3 °F 28.0 °F 89% 30.14 in 2.5 mi SSW 6.9 mph - 0.00 in Snow Light Snow
7:39 PM 30.9 °F 23.5 °F 28.0 °F 89% 30.14 in 3.0 mi SSW 8.1 mph - 0.00 in Snow Light Snow
7:49 PM 30.2 °F 22.6 °F 26.6 °F 86% 30.15 in 3.0 mi SSW 8.1 mph - 0.00 in Snow Light Snow
7:53 PM 30.9 °F 24.3 °F 27.0 °F 85% 30.17 in 3.0 mi SSW 6.9 mph - 0.00 in Snow Light Snow
8:53 PM 30.0 °F 22.4 °F 27.0 °F 88% 30.17 in 5.0 mi SSW 8.1 mph - 0.00 in   Overcast
9:39 PM 30.0 °F 24.1 °F 26.1 °F 85% 30.14 in 6.0 mi South 5.8 mph - N/A   Scattered Clouds
9:53 PM 30.0 °F 24.1 °F 26.1 °F 85% 30.17 in 5.0 mi South 5.8 mph - N/A   Mostly Cloudy
10:27 PM 30.0 °F 23.2 °F 26.1 °F 85% 30.14 in 3.0 mi South 6.9 mph - 0.00 in Snow Light Snow
10:46 PM 30.0 °F 25.2 °F 27.0 °F 88% 30.14 in 3.0 mi SSW 4.6 mph - 0.00 in Snow Light Snow
10:53 PM 30.0 °F 26.5 °F 27.0 °F 88% 30.16 in 3.0 mi SSW 3.5 mph - 0.00 in Snow Light Snow
11:08 PM 30.0 °F 25.2 °F 27.0 °F 88% 30.14 in 2.5 mi SSW 4.6 mph - 0.00 in Snow Light Snow
11:53 PM 28.9 °F 25.2 °F 27.0 °F 92% 30.15 in 2.0 mi SSW 3.5 mph - 0.00 in Snow Light Snow